| time (UTC) | temp F | wind direction | speed MPH | gust MPH | rain 1hr in | rain 24hr in | rain mn in | humidity % | barometer mb |
| 20260510111000 | 54 | 234 | 0.0 | 0.0 | 0.00 | 0.00 | 0.00 | 96 | 1011.4 |
| 20260510110454 | 54 | 234 | 0.0 | 0.0 | 0.00 | 0.00 | 0.00 | 96 | 1011.4 |
| 20260510105948 | 54 | 209 | 0.0 | 0.0 | 0.00 | 0.00 | 0.00 | 96 | 1011.5 |
| 20260510105442 | 54 | 242 | 0.0 | 0.0 | 0.00 | 0.00 | 0.00 | 96 | 1011.5 |
| 20260510104936 | 54 | 242 | 0.0 | 0.0 | 0.00 | 0.00 | 0.00 | 96 | 1011.4 |
| 20260510104659 | 54 | 236 | 0.0 | 0.0 | 0.00 | 0.00 | 0.00 | 96 | 1011.5 |
| 20260510104150 | 54 | 236 | 0.0 | 0.0 | 0.00 | 0.00 | 0.00 | 96 | 1011.4 |
| 20260510103419 | 54 | 239 | 0.0 | 0.0 | 0.00 | 0.00 | 0.00 | 96 | 1011.4 |
| 20260510103142 | 54 | 214 | 0.0 | 0.0 | 0.00 | 0.00 | 0.00 | 96 | 1011.4 |
| 20260510102407 | 54 | 242 | 0.0 | 0.0 | 0.00 | 0.00 | 0.00 | 96 | 1011.5 |
| 20260510101900 | 54 | 207 | 0.0 | 0.0 | 0.00 | 0.00 | 0.00 | 96 | 1011.3 |
| 20260510101354 | 53 | 175 | 0.0 | 0.0 | 0.00 | 0.00 | 0.00 | 96 | 1011.4 |
| 20260510101118 | 53 | 180 | 0.0 | 0.0 | 0.00 | 0.00 | 0.00 | 96 | 1011.4 |
| 20260510100342 | 53 | 125 | 0.0 | 0.0 | 0.00 | 0.00 | 0.00 | 96 | 1011.5 |
| 20260510095838 | 53 | 125 | 0.0 | 0.0 | 0.00 | 0.00 | 0.00 | 96 | 1011.5 |
| 20260510095331 | 54 | 125 | 0.0 | 0.0 | 0.00 | 0.00 | 0.00 | 95 | 1011.6 |
| 20260510095058 | 54 | 150 | 0.0 | 0.0 | 0.00 | 0.00 | 0.00 | 95 | 1011.6 |
| 20260510094318 | 54 | 155 | 0.0 | 0.0 | 0.00 | 0.00 | 0.00 | 96 | 1011.4 |
| 20260510093812 | 54 | 162 | 0.0 | 0.0 | 0.00 | 0.00 | 0.00 | 95 | 1011.5 |
| 20260510093307 | 54 | 121 | 0.0 | 0.0 | 0.00 | 0.00 | 0.00 | 95 | 1011.5 |
| 20260510093029 | 54 | 199 | 0.0 | 0.0 | 0.00 | 0.00 | 0.00 | 95 | 1011.5 |
| 20260510092254 | 54 | 199 | 0.0 | 0.0 | 0.00 | 0.00 | 0.00 | 95 | 1011.5 |
| 20260510091748 | 54 | 200 | 0.0 | 0.0 | 0.00 | 0.00 | 0.00 | 95 | 1011.7 |
| 20260510091242 | 54 | 200 | 0.0 | 0.0 | 0.00 | 0.00 | 0.00 | 95 | 1011.7 |
| 20260510090736 | 54 | 200 | 0.0 | 0.0 | 0.00 | 0.00 | 0.00 | 95 | 1011.8 |
| 20260510090458 | 54 | 200 | 0.0 | 0.0 | 0.00 | 0.00 | 0.00 | 95 | 1011.8 |
| 20260510085725 | 54 | 219 | 0.0 | 0.0 | 0.00 | 0.00 | 0.00 | 95 | 1011.9 |
| 20260510085218 | 54 | 186 | 0.0 | 0.0 | 0.00 | 0.00 | 0.00 | 95 | 1011.7 |
| 20260510084712 | 54 | 207 | 0.0 | 0.0 | 0.00 | 0.00 | 0.00 | 95 | 1011.8 |
| 20260510084206 | 54 | 207 | 0.0 | 0.0 | 0.00 | 0.00 | 0.00 | 95 | 1011.7 |
| 20260510083700 | 55 | 182 | 0.0 | 0.0 | 0.00 | 0.00 | 0.00 | 95 | 1011.8 |
| 20260510083155 | 55 | 288 | 0.0 | 0.0 | 0.00 | 0.00 | 0.00 | 95 | 1011.7 |
| 20260510082913 | 55 | 288 | 0.0 | 0.0 | 0.00 | 0.00 | 0.00 | 95 | 1011.7 |
| 20260510082142 | 55 | 288 | 0.0 | 0.0 | 0.00 | 0.00 | 0.00 | 95 | 1011.8 |
| 20260510081637 | 55 | 288 | 0.0 | 0.0 | 0.00 | 0.00 | 0.00 | 95 | 1011.8 |
| 20260510081130 | 55 | 288 | 0.0 | 0.0 | 0.00 | 0.00 | 0.00 | 95 | 1011.9 |
| 20260510080843 | 55 | 288 | 0.0 | 0.0 | 0.00 | 0.00 | 0.00 | 95 | 1011.9 |
| 20260510080346 | 55 | 288 | 0.0 | 0.0 | 0.00 | 0.00 | 0.00 | 95 | 1011.9 |
| 20260510075613 | 55 | 288 | 0.0 | 0.0 | 0.00 | 0.00 | 0.00 | 95 | 1011.8 |
| 20260510075106 | 55 | 288 | 0.0 | 0.0 | 0.00 | 0.00 | 0.00 | 95 | 1012.0 |
| 20260510074600 | 54 | 288 | 0.0 | 0.0 | 0.00 | 0.00 | 0.00 | 95 | 1012.0 |
| 20260510074055 | 54 | 288 | 0.0 | 0.0 | 0.00 | 0.00 | 0.00 | 95 | 1011.9 |
| 20260510073548 | 54 | 288 | 0.0 | 0.0 | 0.00 | 0.00 | 0.00 | 94 | 1012.0 |
| 20260510073042 | 54 | 288 | 0.0 | 0.0 | 0.00 | 0.00 | 0.00 | 94 | 1012.2 |
| 20260510072537 | 54 | 288 | 0.0 | 0.0 | 0.00 | 0.00 | 0.00 | 94 | 1012.1 |
| 20260510072030 | 54 | 288 | 0.0 | 0.0 | 0.00 | 0.00 | 0.00 | 94 | 1012.1 |
| 20260510071524 | 54 | 288 | 0.0 | 0.0 | 0.00 | 0.00 | 0.00 | 94 | 1012.1 |
| 20260510071018 | 55 | 288 | 0.0 | 0.0 | 0.00 | 0.00 | 0.00 | 94 | 1012.1 |
| 20260510070512 | 55 | 288 | 0.0 | 0.0 | 0.00 | 0.00 | 0.00 | 94 | 1012.3 |
| 20260510070005 | 55 | 288 | 0.0 | 0.0 | 0.00 | 0.00 | 0.00 | 94 | 1012.2 |
| 20260510065501 | 55 | 288 | 0.0 | 0.0 | 0.00 | 0.00 | 0.00 | 94 | 1012.4 |
| 20260510064955 | 55 | 288 | 0.0 | 0.0 | 0.00 | 0.00 | 0.00 | 93 | 1012.2 |
| 20260510064447 | 55 | 288 | 0.0 | 0.0 | 0.00 | 0.00 | 0.00 | 93 | 1012.3 |
| 20260510063941 | 55 | 288 | 0.0 | 0.0 | 0.00 | 0.00 | 0.00 | 93 | 1012.3 |
| 20260510063435 | 55 | 288 | 0.0 | 0.0 | 0.00 | 0.00 | 0.00 | 93 | 1012.3 |
| 20260510063149 | 55 | 288 | 0.0 | 0.0 | 0.00 | 0.00 | 0.00 | 93 | 1012.3 |
| 20260510062423 | 55 | 288 | 0.0 | 0.0 | 0.00 | 0.00 | 0.00 | 92 | 1012.3 |
| 20260510061917 | 55 | 288 | 0.0 | 0.0 | 0.00 | 0.00 | 0.00 | 92 | 1012.2 |
| 20260510061411 | 55 | 288 | 0.0 | 0.0 | 0.00 | 0.00 | 0.00 | 92 | 1012.3 |
| 20260510060905 | 55 | 288 | 0.0 | 0.0 | 0.00 | 0.00 | 0.00 | 92 | 1012.2 |
| 20260510060400 | 56 | 288 | 0.0 | 0.0 | 0.00 | 0.00 | 0.00 | 92 | 1012.2 |
| 20260510060119 | 56 | 288 | 0.0 | 0.0 | 0.00 | 0.00 | 0.00 | 92 | 1012.1 |
| 20260510055349 | 56 | 288 | 0.0 | 0.0 | 0.00 | 0.00 | 0.00 | 92 | 1012.0 |
| 20260510054841 | 56 | 288 | 0.0 | 0.0 | 0.00 | 0.00 | 0.00 | 92 | 1012.1 |
| 20260510054335 | 56 | 288 | 0.0 | 0.0 | 0.00 | 0.00 | 0.00 | 92 | 1012.1 |
| 20260510053829 | 56 | 288 | 0.0 | 0.0 | 0.00 | 0.00 | 0.00 | 91 | 1012.2 |
| 20260510053324 | 56 | 288 | 0.0 | 0.0 | 0.00 | 0.00 | 0.00 | 91 | 1012.2 |
| 20260510052818 | 56 | 288 | 0.0 | 0.0 | 0.00 | 0.00 | 0.00 | 91 | 1012.2 |
| 20260510052311 | 56 | 288 | 0.0 | 0.0 | 0.00 | 0.00 | 0.00 | 91 | 1012.1 |
| 20260510052024 | 56 | 288 | 0.0 | 0.0 | 0.00 | 0.00 | 0.00 | 91 | 1012.1 |
| 20260510051514 | 56 | 288 | 0.0 | 0.0 | 0.00 | 0.00 | 0.00 | 91 | 1012.2 |
| 20260510050753 | 57 | 288 | 0.0 | 0.0 | 0.00 | 0.00 | 0.00 | 91 | 1012.3 |
| 20260510050248 | 57 | 288 | 0.0 | 0.0 | 0.00 | 0.00 | 0.00 | 90 | 1012.2 |
| 20260510050008 | 57 | 288 | 0.0 | 0.0 | 0.00 | 0.00 | 0.00 | 90 | 1012.2 |
| 20260510045235 | 57 | 288 | 0.0 | 0.0 | 0.00 | 0.00 | 0.00 | 90 | 1012.1 |
| 20260510044728 | 57 | 288 | 0.0 | 0.0 | 0.00 | 0.00 | 0.00 | 90 | 1012.0 |
| 20260510044445 | 57 | 288 | 0.0 | 0.0 | 0.00 | 0.00 | 0.00 | 90 | 1012.1 |
| 20260510043717 | 57 | 288 | 0.0 | 0.0 | 0.00 | 0.00 | 0.00 | 90 | 1012.0 |
| 20260510043211 | 57 | 288 | 0.0 | 0.0 | 0.00 | 0.00 | 0.00 | 89 | 1012.1 |
| 20260510042705 | 57 | 288 | 0.0 | 0.0 | 0.00 | 0.00 | 0.00 | 89 | 1012.1 |
| 20260510042159 | 57 | 288 | 0.0 | 0.0 | 0.00 | 0.00 | 0.00 | 88 | 1012.0 |
| 20260510041652 | 58 | 288 | 0.0 | 0.0 | 0.00 | 0.00 | 0.00 | 88 | 1012.0 |
| 20260510041147 | 58 | 288 | 0.0 | 0.0 | 0.00 | 0.00 | 0.00 | 89 | 1012.0 |
| 20260510040915 | 58 | 288 | 0.0 | 0.0 | 0.00 | 0.00 | 0.00 | 89 | 1011.9 |
| 20260510040135 | 58 | 288 | 0.0 | 0.0 | 0.00 | 0.00 | 0.00 | 88 | 1011.8 |
| 20260510035629 | 58 | 288 | 0.0 | 0.0 | 0.00 | 0.00 | 0.00 | 88 | 1011.8 |
| 20260510035614 | 58 | 288 | 0.0 | 0.0 | 0.00 | 0.00 | 0.00 | 88 | 1011.8 |
| 20260510034619 | 58 | 288 | 0.0 | 0.0 | 0.00 | 0.00 | 0.00 | 87 | 1011.8 |
| 20260510034111 | 58 | 288 | 0.0 | 0.0 | 0.00 | 0.00 | 0.00 | 87 | 1011.6 |
| 20260510033605 | 58 | 288 | 0.0 | 0.0 | 0.00 | 0.00 | 0.00 | 86 | 1011.7 |
| 20260510033059 | 59 | 288 | 0.0 | 0.0 | 0.00 | 0.00 | 0.00 | 86 | 1011.8 |
| 20260510032553 | 59 | 288 | 0.0 | 0.0 | 0.00 | 0.00 | 0.00 | 85 | 1011.6 |
| 20260510032047 | 59 | 288 | 0.0 | 0.0 | 0.00 | 0.00 | 0.00 | 85 | 1011.6 |
| 20260510031541 | 60 | 288 | 0.0 | 0.0 | 0.00 | 0.00 | 0.00 | 84 | 1011.6 |
| 20260510031255 | 60 | 288 | 0.0 | 0.0 | 0.00 | 0.00 | 0.00 | 84 | 1011.6 |
| 20260510030529 | 60 | 288 | 0.0 | 0.0 | 0.00 | 0.00 | 0.00 | 83 | 1011.5 |
| 20260510030023 | 61 | 288 | 0.0 | 0.0 | 0.00 | 0.00 | 0.00 | 82 | 1011.4 |
| 20260510025517 | 61 | 267 | 0.0 | 0.0 | 0.00 | 0.00 | 0.00 | 80 | 1011.5 |
| 20260510025012 | 62 | 323 | 0.0 | 0.0 | 0.00 | 0.00 | 0.00 | 79 | 1011.4 |
| 20260510024505 | 62 | 280 | 0.0 | 0.0 | 0.00 | 0.00 | 0.00 | 78 | 1011.3 |
| 20260510024000 | 63 | 355 | 0.0 | 0.0 | 0.00 | 0.00 | 0.00 | 77 | 1011.1 |
| 20260510023453 | 63 | 355 | 0.0 | 0.0 | 0.00 | 0.00 | 0.00 | 75 | 1011.1 |
| 20260510022949 | 64 | 355 | 0.0 | 0.0 | 0.00 | 0.00 | 0.00 | 75 | 1011.1 |
| 20260510022442 | 64 | 355 | 0.0 | 0.0 | 0.00 | 0.00 | 0.00 | 73 | 1011.1 |
| 20260510021935 | 65 | 355 | 0.0 | 2.0 | 0.00 | 0.00 | 0.00 | 73 | 1011.0 |
| 20260510021429 | 66 | 0 | 0.0 | 2.0 | 0.00 | 0.00 | 0.00 | 71 | 1011.0 |
| 20260510021143 | 67 | 337 | 0.0 | 2.0 | 0.00 | 0.00 | 0.00 | 69 | 1010.9 |
| 20260510020418 | 68 | 22 | 0.0 | 2.0 | 0.00 | 0.00 | 0.00 | 68 | 1010.9 |
| 20260510015913 | 69 | 18 | 0.0 | 0.0 | 0.00 | 0.00 | 0.00 | 66 | 1010.9 |
| 20260510015405 | 69 | 111 | 0.0 | 0.0 | 0.00 | 0.00 | 0.00 | 65 | 1011.0 |
| 20260510014901 | 71 | 55 | 0.0 | 0.0 | 0.00 | 0.00 | 0.00 | 63 | 1011.0 |
| 20260510014354 | 71 | 222 | 0.0 | 0.0 | 0.00 | 0.00 | 0.00 | 61 | 1011.0 |
| 20260510013847 | 72 | 222 | 0.0 | 0.0 | 0.00 | 0.00 | 0.00 | 60 | 1011.0 |
| 20260510013341 | 72 | 213 | 0.0 | 0.0 | 0.00 | 0.00 | 0.00 | 60 | 1011.0 |
| 20260510012835 | 72 | 220 | 0.0 | 2.0 | 0.00 | 0.00 | 0.00 | 60 | 1010.9 |
| 20260510012329 | 72 | 165 | 0.0 | 2.0 | 0.00 | 0.00 | 0.00 | 60 | 1011.0 |
| 20260510012043 | 72 | 232 | 0.0 | 5.0 | 0.00 | 0.00 | 0.00 | 60 | 1011.0 |
| 20260510011317 | 72 | 211 | 0.0 | 5.0 | 0.00 | 0.00 | 0.00 | 59 | 1010.8 |
| 20260510010812 | 73 | 186 | 0.0 | 5.0 | 0.00 | 0.00 | 0.00 | 59 | 1010.8 |
| 20260510010306 | 73 | 245 | 0.0 | 5.0 | 0.00 | 0.00 | 0.00 | 57 | 1010.9 |
| 20260510005759 | 74 | 173 | 0.0 | 3.0 | 0.00 | 0.00 | 0.00 | 56 | 1010.9 |
| 20260510005253 | 74 | 207 | 0.0 | 2.0 | 0.00 | 0.00 | 0.00 | 55 | 1010.9 |
| 20260510004747 | 75 | 166 | 0.0 | 5.0 | 0.00 | 0.00 | 0.00 | 54 | 1010.9 |
| 20260510004459 | 76 | 231 | 0.0 | 5.0 | 0.00 | 0.00 | 0.00 | 53 | 1010.8 |
| 20260510003735 | 76 | 188 | 0.0 | 5.0 | 0.00 | 0.00 | 0.00 | 52 | 1010.8 |
| 20260510003230 | 77 | 232 | 1.0 | 6.0 | 0.00 | 0.00 | 0.00 | 52 | 1011.0 |
| 20260510002724 | 77 | 244 | 1.0 | 6.0 | 0.00 | 0.00 | 0.00 | 52 | 1010.9 |
| 20260510002218 | 77 | 228 | 0.0 | 6.0 | 0.00 | 0.00 | 0.00 | 51 | 1010.9 |
| 20260510002156 | 77 | 177 | 0.0 | 6.0 | 0.00 | 0.00 | 0.00 | 49 | 1010.9 |
| 20260510001430 | 77 | 173 | 1.0 | 6.0 | 0.00 | 0.00 | 0.00 | 49 | 1010.9 |
| 20260510000659 | 78 | 238 | 1.0 | 6.0 | 0.00 | 0.00 | 0.00 | 49 | 1010.8 |
| 20260510000418 | 78 | 177 | 0.0 | 5.0 | 0.00 | 0.00 | 0.00 | 49 | 1010.9 |
| 20260509235647 | 77 | 195 | 1.0 | 5.0 | 0.00 | 0.00 | 0.00 | 49 | 1010.8 |
| 20260509235142 | 77 | 230 | 1.0 | 6.0 | 0.00 | 0.00 | 0.00 | 49 | 1010.7 |
| 20260509234636 | 78 | 278 | 1.0 | 6.0 | 0.00 | 0.00 | 0.00 | 49 | 1010.8 |
| 20260509234130 | 78 | 212 | 1.0 | 7.0 | 0.00 | 0.00 | 0.00 | 47 | 1010.7 |
| 20260509233624 | 78 | 175 | 1.0 | 7.0 | 0.00 | 0.00 | 0.00 | 48 | 1010.8 |
| 20260509233343 | 78 | 206 | 1.0 | 8.0 | 0.00 | 0.00 | 0.00 | 47 | 1010.8 |
| 20260509232611 | 78 | 165 | 0.0 | 8.0 | 0.00 | 0.00 | 0.00 | 46 | 1010.8 |
| 20260509232106 | 78 | 184 | 1.0 | 8.0 | 0.00 | 0.00 | 0.00 | 48 | 1010.9 |
| 20260509231600 | 78 | 227 | 1.0 | 8.0 | 0.00 | 0.00 | 0.00 | 47 | 1010.9 |
| 20260509231053 | 78 | 243 | 2.0 | 8.0 | 0.00 | 0.00 | 0.00 | 45 | 1011.0 |
| 20260509230548 | 78 | 225 | 1.0 | 8.0 | 0.00 | 0.00 | 0.00 | 46 | 1011.0 |
| 20260509230042 | 78 | 257 | 1.0 | 9.0 | 0.00 | 0.00 | 0.00 | 46 | 1011.0 |
| 20260509230018 | 78 | 208 | 1.0 | 9.0 | 0.00 | 0.00 | 0.00 | 47 | 1011.1 |
| 20260509225029 | 78 | 183 | 1.0 | 7.0 | 0.00 | 0.00 | 0.00 | 47 | 1011.0 |
| 20260509224748 | 79 | 198 | 1.0 | 8.0 | 0.00 | 0.00 | 0.00 | 45 | 1010.9 |
| 20260509224017 | 79 | 205 | 1.0 | 8.0 | 0.00 | 0.00 | 0.00 | 45 | 1011.1 |
| 20260509223737 | 79 | 211 | 1.0 | 9.0 | 0.00 | 0.00 | 0.00 | 43 | 1011.0 |
| 20260509223005 | 79 | 229 | 1.0 | 9.0 | 0.00 | 0.00 | 0.00 | 44 | 1011.1 |
| 20260509222500 | 79 | 248 | 2.0 | 10.0 | 0.00 | 0.00 | 0.00 | 44 | 1011.4 |
| 20260509221954 | 79 | 193 | 2.0 | 10.0 | 0.00 | 0.00 | 0.00 | 42 | 1011.4 |
| 20260509221448 | 80 | 245 | 1.0 | 7.0 | 0.00 | 0.00 | 0.00 | 42 | 1011.4 |
| 20260509220941 | 80 | 142 | 1.0 | 8.0 | 0.00 | 0.00 | 0.00 | 45 | 1011.3 |
| 20260509220435 | 80 | 191 | 1.0 | 6.0 | 0.00 | 0.00 | 0.00 | 44 | 1011.4 |
| 20260509215931 | 80 | 217 | 0.0 | 7.0 | 0.00 | 0.00 | 0.00 | 43 | 1011.5 |
| 20260509215423 | 79 | 186 | 0.0 | 7.0 | 0.00 | 0.00 | 0.00 | 44 | 1011.6 |
| 20260509214917 | 79 | 225 | 1.0 | 8.0 | 0.00 | 0.00 | 0.00 | 43 | 1011.4 |
| 20260509214411 | 78 | 150 | 2.0 | 10.0 | 0.00 | 0.00 | 0.00 | 45 | 1011.5 |
| 20260509213905 | 78 | 210 | 2.0 | 10.0 | 0.00 | 0.00 | 0.00 | 48 | 1011.4 |
| 20260509213359 | 78 | 232 | 4.0 | 11.0 | 0.00 | 0.00 | 0.00 | 47 | 1011.6 |
| 20260509212853 | 78 | 230 | 5.0 | 11.0 | 0.00 | 0.00 | 0.00 | 49 | 1011.6 |
| 20260509212348 | 78 | 232 | 4.0 | 11.0 | 0.00 | 0.00 | 0.00 | 49 | 1011.5 |
| 20260509211841 | 79 | 234 | 3.0 | 9.0 | 0.00 | 0.00 | 0.00 | 48 | 1011.7 |
| 20260509211342 | 80 | 232 | 2.0 | 9.0 | 0.00 | 0.00 | 0.00 | 48 | 1011.7 |
| 20260509211105 | 80 | 265 | 1.0 | 9.0 | 0.00 | 0.00 | 0.00 | 49 | 1011.7 |
| 20260509210341 | 80 | 226 | 2.0 | 9.0 | 0.00 | 0.00 | 0.00 | 49 | 1011.7 |
| 20260509205839 | 80 | 252 | 1.0 | 9.0 | 0.00 | 0.00 | 0.00 | 50 | 1011.8 |
| 20260509205342 | 81 | 215 | 2.0 | 10.0 | 0.00 | 0.00 | 0.00 | 49 | 1011.8 |
| 20260509204838 | 81 | 317 | 2.0 | 10.0 | 0.00 | 0.00 | 0.00 | 48 | 1012.0 |
| 20260509204339 | 81 | 164 | 1.0 | 8.0 | 0.00 | 0.00 | 0.00 | 48 | 1011.9 |
| 20260509203834 | 82 | 199 | 1.0 | 7.0 | 0.00 | 0.00 | 0.00 | 49 | 1011.8 |
| 20260509203337 | 81 | 207 | 1.0 | 8.0 | 0.00 | 0.00 | 0.00 | 49 | 1011.8 |
| 20260509203100 | 81 | 256 | 1.0 | 8.0 | 0.00 | 0.00 | 0.00 | 49 | 1011.8 |
| 20260509202337 | 81 | 251 | 2.0 | 9.0 | 0.00 | 0.00 | 0.00 | 49 | 1011.8 |
| 20260509201833 | 81 | 140 | 3.0 | 9.0 | 0.00 | 0.00 | 0.00 | 49 | 1011.9 |
| 20260509201332 | 81 | 227 | 3.0 | 10.0 | 0.00 | 0.00 | 0.00 | 49 | 1011.9 |
| 20260509200830 | 81 | 211 | 4.0 | 10.0 | 0.00 | 0.00 | 0.00 | 50 | 1011.8 |
| 20260509200334 | 82 | 235 | 4.0 | 12.0 | 0.00 | 0.00 | 0.00 | 49 | 1011.8 |
| 20260509195832 | 82 | 251 | 2.0 | 12.0 | 0.00 | 0.00 | 0.00 | 48 | 1011.8 |
| 20260509195328 | 82 | 251 | 1.0 | 7.0 | 0.00 | 0.00 | 0.00 | 47 | 1011.9 |
| 20260509194830 | 82 | 217 | 1.0 | 7.0 | 0.00 | 0.00 | 0.00 | 49 | 1011.8 |
| 20260509194330 | 82 | 277 | 0.0 | 5.0 | 0.00 | 0.00 | 0.00 | 41 | 1011.9 |
| 20260509193823 | 82 | 132 | 0.0 | 5.0 | 0.00 | 0.00 | 0.00 | 40 | 1012.0 |
| 20260509193318 | 81 | 275 | 1.0 | 6.0 | 0.00 | 0.00 | 0.00 | 40 | 1012.1 |
| 20260509192812 | 81 | 260 | 1.0 | 6.0 | 0.00 | 0.00 | 0.00 | 40 | 1012.2 |
| 20260509192318 | 81 | 174 | 1.0 | 6.0 | 0.00 | 0.00 | 0.00 | 37 | 1012.1 |
| 20260509191800 | 81 | 159 | 1.0 | 7.0 | 0.00 | 0.00 | 0.00 | 40 | 1012.1 |
| 20260509191255 | 80 | 236 | 1.0 | 6.0 | 0.00 | 0.00 | 0.00 | 42 | 1012.2 |
| 20260509191011 | 80 | 228 | 1.0 | 6.0 | 0.00 | 0.00 | 0.00 | 42 | 1012.3 |
| 20260509190245 | 80 | 279 | 1.0 | 6.0 | 0.00 | 0.00 | 0.00 | 44 | 1012.3 |
| 20260509185737 | 80 | 175 | 0.0 | 5.0 | 0.00 | 0.00 | 0.00 | 43 | 1012.3 |
| 20260509185230 | 80 | 256 | 0.0 | 5.0 | 0.00 | 0.00 | 0.00 | 45 | 1012.3 |
| 20260509184724 | 79 | 185 | 0.0 | 5.0 | 0.00 | 0.00 | 0.00 | 46 | 1012.4 |
| 20260509184218 | 78 | 161 | 0.0 | 5.0 | 0.00 | 0.00 | 0.00 | 48 | 1012.4 |
| 20260509183945 | 78 | 288 | 1.0 | 6.0 | 0.00 | 0.00 | 0.00 | 55 | 1012.4 |
| 20260509183427 | 78 | 115 | 1.0 | 6.0 | 0.00 | 0.00 | 0.00 | 48 | 1012.4 |
| 20260509182702 | 77 | 237 | 1.0 | 4.0 | 0.00 | 0.00 | 0.00 | 51 | 1012.3 |
| 20260509182154 | 78 | 346 | 0.0 | 4.0 | 0.00 | 0.00 | 0.00 | 57 | 1012.3 |
| 20260509181649 | 78 | 36 | 0.0 | 3.0 | 0.00 | 0.00 | 0.00 | 55 | 1012.3 |
| 20260509181142 | 77 | 287 | 0.0 | 3.0 | 0.00 | 0.00 | 0.00 | 55 | 1012.4 |
| 20260509180636 | 76 | 12 | 0.0 | 5.0 | 0.00 | 0.00 | 0.00 | 57 | 1012.5 |
| 20260509180130 | 75 | 192 | 0.0 | 5.0 | 0.00 | 0.00 | 0.00 | 59 | 1012.5 |
| 20260509175626 | 74 | 224 | 0.0 | 5.0 | 0.00 | 0.00 | 0.00 | 62 | 1012.4 |
| 20260509175119 | 73 | 263 | 0.0 | 5.0 | 0.00 | 0.00 | 0.00 | 64 | 1012.5 |
| 20260509174612 | 72 | 28 | 0.0 | 4.0 | 0.00 | 0.00 | 0.00 | 65 | 1012.6 |
| 20260509174106 | 72 | 77 | 0.0 | 4.0 | 0.00 | 0.00 | 0.00 | 66 | 1012.6 |
| 20260509173600 | 71 | 11 | 0.0 | 4.0 | 0.00 | 0.00 | 0.00 | 67 | 1012.7 |
| 20260509173054 | 71 | 325 | 0.0 | 4.0 | 0.00 | 0.00 | 0.00 | 69 | 1012.7 |
| 20260509172549 | 70 | 0 | 0.0 | 4.0 | 0.00 | 0.00 | 0.00 | 69 | 1012.6 |
| 20260509172042 | 70 | 331 | 0.0 | 4.0 | 0.00 | 0.00 | 0.00 | 69 | 1012.6 |
| 20260509171541 | 69 | 355 | 0.0 | 5.0 | 0.00 | 0.00 | 0.00 | 71 | 1012.6 |
| 20260509171258 | 69 | 10 | 0.0 | 5.0 | 0.00 | 0.00 | 0.00 | 71 | 1012.6 |
| 20260509170544 | 68 | 9 | 1.0 | 5.0 | 0.00 | 0.00 | 0.00 | 72 | 1012.7 |
| 20260509170044 | 68 | 27 | 1.0 | 5.0 | 0.00 | 0.00 | 0.00 | 73 | 1012.6 |
| 20260509165542 | 68 | 310 | 1.0 | 4.0 | 0.00 | 0.00 | 0.00 | 73 | 1012.6 |
| 20260509165042 | 67 | 37 | 0.0 | 2.0 | 0.00 | 0.00 | 0.00 | 74 | 1012.6 |
| 20260509164544 | 67 | 13 | 0.0 | 2.0 | 0.00 | 0.00 | 0.00 | 75 | 1012.6 |
| 20260509164043 | 66 | 5 | 0.0 | 3.0 | 0.00 | 0.00 | 0.00 | 76 | 1012.6 |
| 20260509163539 | 66 | 323 | 0.0 | 3.0 | 0.00 | 0.00 | 0.00 | 78 | 1012.5 |
| 20260509163040 | 65 | 355 | 0.0 | 2.0 | 0.00 | 0.00 | 0.00 | 79 | 1012.5 |
| 20260509162541 | 65 | 250 | 0.0 | 2.0 | 0.00 | 0.00 | 0.00 | 80 | 1012.5 |
| 20260509162042 | 64 | 317 | 0.0 | 2.0 | 0.00 | 0.00 | 0.00 | 81 | 1012.5 |
| 20260509161542 | 63 | 350 | 0.0 | 3.0 | 0.00 | 0.00 | 0.00 | 82 | 1012.6 |
| 20260509161043 | 63 | 0 | 0.0 | 3.0 | 0.00 | 0.00 | 0.00 | 83 | 1012.5 |
| 20260509160540 | 63 | 31 | 0.0 | 3.0 | 0.00 | 0.00 | 0.00 | 84 | 1012.5 |
| 20260509160038 | 62 | 336 | 0.0 | 3.0 | 0.00 | 0.00 | 0.00 | 85 | 1012.5 |
| 20260509155539 | 62 | 317 | 0.0 | 0.0 | 0.00 | 0.00 | 0.00 | 87 | 1012.5 |
| 20260509155037 | 61 | 61 | 0.0 | 0.0 | 0.00 | 0.00 | 0.00 | 90 | 1012.5 |
| 20260509154537 | 60 | 286 | 0.0 | 1.0 | 0.00 | 0.00 | 0.00 | 93 | 1012.5 |
| 20260509154036 | 60 | 302 | 0.0 | 1.0 | 0.00 | 0.00 | 0.00 | 94 | 1012.7 |
| 20260509153537 | 59 | 269 | 0.0 | 0.0 | 0.00 | 0.00 | 0.00 | 97 | 1012.8 |
| 20260509153035 | 58 | 95 | 0.0 | 0.0 | 0.00 | 0.00 | 0.00 | 97 | 1012.8 |
| 20260509152534 | 57 | 94 | 0.0 | 0.0 | 0.00 | 0.00 | 0.00 | 97 | 1012.8 |
| 20260509152033 | 57 | 205 | 0.0 | 0.0 | 0.00 | 0.00 | 0.00 | 96 | 1012.7 |
| 20260509151530 | 56 | 217 | 0.0 | 0.0 | 0.00 | 0.00 | 0.00 | 96 | 1012.7 |
| 20260509151032 | 56 | 217 | 0.0 | 0.0 | 0.00 | 0.00 | 0.00 | 96 | 1012.7 |
| 20260509150530 | 56 | 217 | 0.0 | 0.0 | 0.00 | 0.00 | 0.00 | 97 | 1012.8 |
| 20260509150030 | 56 | 212 | 0.0 | 0.0 | 0.00 | 0.00 | 0.00 | 97 | 1012.7 |
| 20260509145753 | 56 | 200 | 0.0 | 0.0 | 0.00 | 0.00 | 0.00 | 97 | 1012.7 |
| 20260509145031 | 56 | 200 | 0.0 | 0.0 | 0.00 | 0.00 | 0.00 | 97 | 1012.7 |
| 20260509144531 | 56 | 200 | 0.0 | 0.0 | 0.00 | 0.00 | 0.00 | 97 | 1012.8 |
| 20260509144029 | 56 | 200 | 0.0 | 0.0 | 0.00 | 0.00 | 0.00 | 97 | 1012.7 |
| 20260509143530 | 56 | 200 | 0.0 | 0.0 | 0.00 | 0.00 | 0.00 | 97 | 1012.8 |
| 20260509143031 | 56 | 200 | 0.0 | 0.0 | 0.00 | 0.00 | 0.00 | 97 | 1012.7 |
| 20260509142531 | 56 | 140 | 0.0 | 0.0 | 0.00 | 0.00 | 0.00 | 97 | 1012.6 |
| 20260509142032 | 56 | 126 | 0.0 | 0.0 | 0.00 | 0.00 | 0.00 | 97 | 1012.7 |
| 20260509141531 | 56 | 126 | 0.0 | 0.0 | 0.00 | 0.00 | 0.00 | 97 | 1012.6 |
| 20260509141030 | 56 | 114 | 0.0 | 0.0 | 0.00 | 0.00 | 0.00 | 97 | 1012.6 |
| 20260509140531 | 56 | 114 | 0.0 | 0.0 | 0.00 | 0.00 | 0.00 | 97 | 1012.6 |
| 20260509140031 | 56 | 114 | 0.0 | 0.0 | 0.00 | 0.00 | 0.00 | 97 | 1012.5 |
| 20260509135757 | 56 | 113 | 0.0 | 0.0 | 0.00 | 0.00 | 0.00 | 96 | 1012.6 |
| 20260509135030 | 56 | 181 | 0.0 | 0.0 | 0.00 | 0.00 | 0.00 | 97 | 1012.5 |
| 20260509134530 | 56 | 198 | 0.0 | 0.0 | 0.00 | 0.00 | 0.00 | 97 | 1012.4 |
| 20260509134031 | 56 | 187 | 0.0 | 0.0 | 0.00 | 0.00 | 0.00 | 97 | 1012.4 |
| 20260509133529 | 56 | 138 | 0.0 | 0.0 | 0.00 | 0.00 | 0.00 | 97 | 1012.4 |
| 20260509133030 | 56 | 175 | 0.0 | 0.0 | 0.00 | 0.00 | 0.00 | 97 | 1012.4 |
| 20260509132530 | 56 | 233 | 0.0 | 0.0 | 0.00 | 0.00 | 0.00 | 97 | 1012.4 |
| 20260509132030 | 56 | 233 | 0.0 | 0.0 | 0.00 | 0.00 | 0.00 | 96 | 1012.3 |
| 20260509131530 | 56 | 169 | 0.0 | 0.0 | 0.00 | 0.00 | 0.00 | 96 | 1012.4 |
| 20260509131029 | 56 | 157 | 0.0 | 0.0 | 0.00 | 0.00 | 0.00 | 96 | 1012.4 |
| 20260509130530 | 56 | 188 | 0.0 | 0.0 | 0.00 | 0.00 | 0.00 | 96 | 1012.4 |
| 20260509130254 | 56 | 188 | 0.0 | 0.0 | 0.00 | 0.00 | 0.00 | 97 | 1012.2 |
| 20260509125531 | 56 | 229 | 0.0 | 0.0 | 0.00 | 0.00 | 0.00 | 96 | 1012.2 |
| 20260509125028 | 56 | 229 | 0.0 | 0.0 | 0.00 | 0.00 | 0.00 | 97 | 1012.3 |
| 20260509124526 | 56 | 229 | 0.0 | 0.0 | 0.00 | 0.00 | 0.00 | 97 | 1012.2 |
| 20260509124026 | 56 | 229 | 0.0 | 0.0 | 0.00 | 0.00 | 0.00 | 97 | 1012.2 |
| 20260509123528 | 56 | 229 | 0.0 | 0.0 | 0.00 | 0.00 | 0.00 | 97 | 1012.1 |
| 20260509123026 | 56 | 229 | 0.0 | 0.0 | 0.00 | 0.00 | 0.00 | 97 | 1012.2 |
| 20260509122530 | 56 | 229 | 0.0 | 0.0 | 0.00 | 0.00 | 0.00 | 97 | 1012.1 |
| 20260509122027 | 56 | 229 | 0.0 | 0.0 | 0.00 | 0.00 | 0.00 | 96 | 1012.0 |
| 20260509121528 | 56 | 229 | 0.0 | 0.0 | 0.00 | 0.00 | 0.00 | 96 | 1012.0 |
| 20260509121026 | 56 | 229 | 0.0 | 0.0 | 0.00 | 0.00 | 0.00 | 96 | 1012.1 |
| 20260509120525 | 56 | 237 | 0.0 | 0.0 | 0.00 | 0.00 | 0.00 | 97 | 1012.0 |
| 20260509120025 | 56 | 254 | 0.0 | 0.0 | 0.00 | 0.00 | 0.00 | 96 | 1012.0 |
| 20260509115527 | 56 | 258 | 0.0 | 0.0 | 0.00 | 0.00 | 0.00 | 96 | 1012.1 |
| 20260509115028 | 56 | 178 | 0.0 | 0.0 | 0.00 | 0.00 | 0.00 | 96 | 1012.1 |
| 20260509114529 | 56 | 178 | 0.0 | 0.0 | 0.00 | 0.00 | 0.00 | 96 | 1012.0 |
| 20260509114027 | 56 | 178 | 0.0 | 0.0 | 0.00 | 0.00 | 0.00 | 96 | 1012.1 |
| 20260509113526 | 56 | 178 | 0.0 | 0.0 | 0.00 | 0.00 | 0.00 | 97 | 1011.9 |
| 20260509113028 | 56 | 207 | 0.0 | 0.0 | 0.00 | 0.00 | 0.00 | 96 | 1011.8 |
| 20260509112524 | 56 | 116 | 0.0 | 0.0 | 0.00 | 0.00 | 0.00 | 96 | 1011.9 |
| 20260509112023 | 56 | 116 | 0.0 | 0.0 | 0.00 | 0.00 | 0.00 | 96 | 1011.9 |
| 20260509111521 | 56 | 116 | 0.0 | 0.0 | 0.00 | 0.00 | 0.00 | 96 | 1011.9 |